sat.trackr.live / text

‹ back to catalog

STARLINK-36392

NORAD 68115 · 2026-044Q

PAYLOAD ACTIVE UNKNOWN

§ Identity

Operator
Country
US
Launch date
2026-03-08
Launch site
AFWTR
Launch vehicle
Mass (kg)
RCS (m²)

Purposes: comms

External: N2YO · Heavens-Above · Gunter

§ Orbital elements

Epoch: 2026-09-20T03:25:44.908032Z

Period
93.90 min
Inclination
97.2836°
Eccentricity
0.0003535
Mean motion
15.33466117 rev/d
Perigee alt
463.1 km
Apogee alt
467.9 km
Semi-major
6,843.6 km
B*
6.1246e-4
RAAN
222.1073°
Arg perigee
100.1818°
Mean anomaly
259.9824°
Rev number
3,138

§ Raw data

STARLINK-363921 68115U 26044Q   26263.14288088  .00019766  00000+0  61246-3 0  99952 68115  97.2836 222.1073 0003535 100.1818 259.9824 15.33466117 31381

JSON: /api/v1/satellites/68115 · /tle

For live sub-satellite position, see the globe view (requires WebGL).

§ Visibility from observer

Set your observer location to see the next 7 days of passes ≥ 10°. The values pass through the URL so the page stays shareable.

No JS? Fill the form by hand. The geolocation button needs JavaScript.